Temp_Advection
nan nan nan nan nan nan nan nan nan nan nan nan nan nan nan nan nan nan nan nan nan nan nan nan nan nan nan nan nan nan nan nan nan nan nan nan nan nan nan nan nan nan nan nan nan nan nan nan nan nan nan nan nan nan
nan -0 -0 0 0 -0 -0 0 0 0 -0 0 0 0 0 0 -0 0 0 0 0 -1 -1 1 0 0 0 -0 -1 -0 -0 -0 0 0 0 0 0 -0 0 -0 -0 -0 -0 0 -0 -0 -0 -0 -0 -0 -0 -0 -0 nan
nan -0 0 0 0 0 -0 0 0 0 0 0 0 0 0 0 0 0 0 0 -1 -1 0 0 -0 0 0 0 -0 -0 -0 -0 -0 -0 0 0 0 0 -0 -0 -0 -0 -0 0 0 -0 -0 -0 -0 -0 -0 -0 0 nan
nan -0 0 0 0 0 0 0 0 0 0 0 0 0 0 0 0 0 0 0 -0 -1 -0 0 0 0 0 0 0 -0 -1 -0 -0 -0 -0 0 0 -0 0 0 -0 0 -0 -0 -0 -0 -0 -0 -0 -0 -0 -0 -0 nan
nan 0 0 -0 -0 -0 0 0 0 0 0 0 0 0 0 0 0 0 0 0 0 -0 -0 0 -0 0 0 0 -0 -0 -0 -0 -0 -0 -0 -0 0 0 -0 -0 0 -0 0 0 -0 -0 -0 -0 -0 -0 -0 -0 -0 nan
nan 0 -0 0 -0 -0 -0 0 0 0 0 0 0 0 0 0 0 0 0 0 0 0 -1 -0 0 0 0 0 0 -0 -0 -0 -0 -0 -0 0 0 0 0 -0 -0 0 -0 0 0 0 -0 -0 -0 -0 -0 -0 -0 nan
nan 0 0 -0 0 0 0 0 0 0 0 0 0 0 0 0 0 -0 -0 1 1 -0 -1 -0 0 0 0 0 -0 -0 -0 -0 -0 -0 0 0 0 -0 0 0 0 -0 -0 0 -0 -0 -0 -0 -0 -0 -0 -0 -0 nan
nan 0 0 0 -0 -0 -0 0 0 0 0 0 0 0 0 0 -0 -0 1 1 0 -0 -1 -0 0 0 0 0 -0 0 -0 -0 -0 -0 0 0 0 0 0 -0 0 -0 -0 -0 0 0 -0 -0 -0 -0 -0 -0 -0 nan
nan 0 0 0 -0 -0 -0 0 0 0 0 0 0 0 0 -0 -0 0 1 1 0 -0 -0 0 0 0 0 0 0 -0 -0 -0 0 0 0 0 -0 0 0 -0 -0 -0 -0 -0 0 0 0 0 -0 -0 -0 -0 -0 nan
nan -0 0 0 -0 -0 -0 -0 0 0 0 0 0 -0 -0 0 1 0 0 0 -0 -0 -0 -0 0 0 -0 -0 0 -0 0 0 -0 0 -0 0 0 0 0 0 0 0 0 -0 -1 -0 -0 -0 -0 -0 -0 -0 -0 nan
nan 0 -0 0 0 -0 -0 0 0 0 0 -0 -0 -0 1 0 0 -0 -0 -0 -0 -0 -0 0 0 0 0 -0 -0 0 -0 -0 -0 0 -0 -0 0 0 0 1 0 0 0 0 -0 -0 -0 -0 -0 -0 -0 -0 -0 nan
nan 0 0 0 0 0 -0 0 0 0 0 -0 -0 -0 0 0 -0 -0 -0 0 0 -0 -0 0 0 0 0 -0 -0 -0 -0 -0 0 -0 -0 0 -0 0 1 0 0 0 0 0 0 0 0 0 0 -0 -0 -0 -0 nan
nan -0 0 0 0 0 0 0 0 0 -0 -0 -0 0 -0 -0 -0 0 0 0 0 0 -0 -0 0 0 0 -0 -0 -0 0 0 0 -0 0 -0 -0 0 1 0 0 0 0 0 0 0 0 0 0 0 0 -0 -0 nan
nan -0 0 0 0 0 0 0 0 0 0 -0 -0 -0 -0 0 0 -0 -0 0 -0 -0 0 -0 -0 0 0 -0 0 -0 0 -0 0 -0 0 0 0 -0 0 0 0 0 0 0 0 0 0 0 0 -0 -0 -0 0 nan
nan 0 0 0 0 0 0 0 0 0 -0 -0 -0 -0 -0 -0 -0 -0 0 0 0 0 0 -0 -0 -0 -0 0 0 0 -0 -0 -0 0 0 0 0 0 0 0 0 0 0 0 0 0 0 0 0 -0 -0 0 -0 nan
nan 0 0 0 0 0 0 0 0 -0 -0 -0 -0 -0 0 0 0 0 0 0 0 0 0 -0 -0 0 0 0 -0 -0 0 0 0 0 0 -0 -0 -0 -0 0 0 0 0 0 0 0 0 0 0 0 -0 -0 -0 nan
nan -0 0 0 0 0 0 0 0 -0 -0 -0 -0 0 0 0 0 0 0 0 0 0 0 -0 -0 -0 -0 -0 0 0 0 0 0 0 -0 0 -0 -0 -0 -0 -0 0 0 0 0 0 0 0 0 0 -0 -0 -0 nan
nan -0 -0 0 0 -0 0 0 -0 -0 -0 0 0 0 0 0 0 0 0 0 0 0 0 -0 -0 -0 -0 0 0 0 0 0 0 0 -0 -0 0 0 0 0 -0 0 0 0 0 0 0 0 -0 -0 -0 -0 -0 nan
nan -0 0 0 0 0 -0 -0 -0 -0 0 0 0 0 -0 -0 -0 0 0 0 0 0 -0 0 -0 0 0 0 -0 -0 -0 -0 -0 -0 0 0 0 0 0 0 0 0 0 0 0 0 -0 0 0 -0 -0 -0 -0 nan
nan 0 0 0 0 -0 -0 -0 -0 -0 -0 0 0 -0 -0 0 0 0 -0 0 0 0 0 -0 -0 -0 -0 -0 -0 -0 -0 -0 -1 -1 -1 -0 0 0 0 0 0 -0 -0 -0 0 0 0 0 0 0 0 0 -0 nan
nan -0 0 0 0 -0 -0 -0 0 0 -0 -0 0 0 0 0 0 0 -0 0 0 0 -0 -1 -0 -0 0 0 0 -0 0 0 0 -0 -0 -0 -0 0 0 0 0 0 -0 -0 -0 -0 0 0 0 0 0 0 -0 nan
nan 0 0 0 -0 -0 -0 -0 0 0 0 0 0 0 0 0 0 -0 0 0 -0 -0 -0 -0 -0 0 0 0 0 0 0 0 0 0 0 0 0 -0 0 -0 -0 -0 0 0 0 0 0 0 0 0 0 0 -0 nan
nan 0 0 0 -0 -0 -0 0 -0 -0 -0 0 0 -0 0 -0 0 0 0 -0 -0 -0 -0 0 0 0 0 0 0 0 0 0 0 0 0 0 0 0 0 0 0 0 0 0 0 0 0 0 0 0 0 0 0 nan
nan 0 0 -0 -0 -0 0 0 0 -0 -0 -0 0 -0 -0 -0 0 0 -0 0 -0 0 0 0 0 0 0 0 0 0 0 0 0 0 0 0 0 1 1 0 0 0 0 0 0 0 0 0 0 0 0 0 0 nan
nan -0 -0 -0 0 -0 -0 0 0 -0 0 0 0 -0 -0 0 -0 -0 -0 -0 0 0 0 0 0 0 0 0 0 0 0 0 0 0 0 0 0 -0 -0 0 0 0 0 0 0 0 0 0 0 0 0 0 0 nan
nan 0 0 -0 -0 -0 -0 -0 -0 0 -0 0 -0 0 0 -0 -0 0 -0 -0 0 -0 -0 0 0 0 0 0 0 0 0 0 0 0 0 0 0 0 -1 -1 -0 -0 -0 -0 0 0 0 0 0 0 0 0 0 nan
nan -0 -0 -0 -0 -0 0 -0 -0 -0 -0 -0 -0 -0 -0 -0 -0 -0 -0 0 0 -0 -0 -0 0 0 0 0 0 0 0 0 0 0 0 0 0 0 0 0 0 -0 0 0 0 0 0 0 0 0 0 0 0 nan
nan -0 0 0 0 0 -0 0 0 -0 -0 -0 -0 -0 -0 -1 -0 -0 0 -0 -0 -0 -0 -0 0 0 0 0 0 0 0 -0 -0 0 0 0 -0 0 0 0 0 0 0 0 0 0 0 0 0 0 0 0 0 nan
nan -0 -0 0 0 0 -0 -0 -0 -0 -0 -0 -0 -0 -0 -0 -0 -0 -0 -0 -0 -0 0 0 0 0 0 0 0 0 0 0 0 -0 -0 -0 -0 -0 -0 0 0 0 0 0 0 0 0 0 0 0 0 0 0 nan
nan 0 0 -0 0 -0 -0 0 0 0 0 0 -0 -0 -0 -0 -0 0 0 0 0 0 0 0 0 0 0 0 -0 -0 0 0 0 -0 0 -0 -0 0 0 0 0 0 0 0 0 0 0 0 0 0 0 -0 -0 nan
nan 0 0 0 0 -0 0 1 0 0 0 0 0 0 -0 -0 -0 -0 0 0 1 0 0 0 0 0 0 0 0 0 -0 -0 0 0 0 0 0 0 0 0 0 0 0 0 0 0 0 0 0 -0 -0 -0 -0 nan
nan 0 0 0 -0 0 0 0 0 0 0 0 0 0 0 0 -0 -0 0 1 1 1 1 1 1 0 0 0 0 0 0 0 0 0 0 0 0 0 0 0 0 0 0 0 0 0 0 0 -0 -0 -0 -0 -0 nan
nan nan nan nan nan nan nan nan nan nan nan nan nan nan nan nan nan nan nan nan nan nan nan nan nan nan nan nan nan nan nan nan nan nan nan nan nan nan nan nan nan nan nan nan nan nan nan nan nan nan nan nan nan nan
Wind_Speed
8 8 5 28 26 27 27 24 20 18 19 20 18 15 13 12 11 10 8 9 7 7 7 7 6 6 7 5 3 3 3 2 2 3 2 2 2 1 3 1 2 1 2 2 2 3 2 15 2 3 6 6 9 12
8 10 15 32 30 28 26 21 18 19 20 20 17 14 11 10 11 11 9 11 18 9 16 19 17 12 8 5 11 4 3 2 3 3 1 3 2 1 2 2 3 1 1 1 2 2 4 7 7 5 6 9 9 12
8 12 36 35 30 26 24 19 18 19 20 19 16 12 8 8 11 12 17 19 26 25 15 10 14 12 9 8 6 6 3 3 3 4 4 2 3 1 2 2 2 2 4 2 4 3 5 8 9 10 11 13 12 12
6 35 37 34 29 26 23 21 18 19 19 17 14 11 8 7 13 14 21 16 17 11 5 5 11 14 12 8 9 9 15 12 9 5 3 2 2 0 2 3 1 1 2 2 3 6 8 9 9 8 11 12 13 13
15 37 35 32 29 24 25 22 19 19 18 17 15 13 12 13 14 15 17 16 11 5 6 7 14 13 13 12 15 13 10 9 4 3 3 2 2 2 2 2 2 1 2 2 2 3 6 6 7 8 11 11 10 12
35 35 30 28 24 25 22 22 20 19 16 16 16 15 14 16 17 16 6 9 15 23 9 3 6 6 9 10 11 11 9 8 5 3 3 2 2 2 2 2 3 5 5 4 4 5 11 10 9 9 11 10 11 13
31 32 32 28 28 25 24 24 20 18 16 16 16 14 11 9 8 4 7 10 14 10 6 3 2 4 8 6 6 5 7 5 4 3 2 2 1 3 1 2 10 8 11 13 15 16 9 4 8 10 11 12 11 12
29 32 31 30 27 24 26 23 22 19 17 17 15 13 11 10 12 14 14 12 9 7 5 3 1 3 7 3 2 1 2 3 4 2 2 1 3 1 2 6 11 10 10 11 12 1 6 14 12 10 9 9 9 11
30 30 30 27 25 24 24 22 22 21 19 19 17 15 13 6 5 8 12 12 9 5 5 3 4 3 6 3 3 2 2 2 2 1 1 2 1 3 4 16 14 13 10 13 11 11 14 12 11 8 6 7 8 9
29 31 27 24 24 24 24 20 23 20 19 18 15 4 5 6 14 9 4 2 3 5 4 3 3 3 5 2 2 2 2 1 1 1 4 1 2 3 5 16 15 15 14 16 16 12 11 10 9 7 5 6 6 7
28 26 28 25 26 25 24 22 23 20 19 5 3 5 14 9 5 4 4 5 4 2 3 3 3 4 3 2 2 2 2 1 1 2 3 2 3 5 12 17 16 14 12 12 7 6 10 8 9 7 7 7 7 8
31 31 28 27 26 25 23 23 20 17 5 5 13 13 6 4 5 5 3 1 1 1 2 3 4 4 4 3 3 2 1 2 2 6 2 2 1 11 17 16 14 12 13 14 10 10 11 9 8 7 7 7 7 8
32 30 29 27 26 24 23 20 16 10 17 12 6 4 3 4 5 3 3 1 0 3 5 5 2 3 3 2 4 2 0 0 1 3 2 1 8 13 16 16 14 12 11 12 14 13 12 10 10 7 8 10 10 10
34 31 28 26 25 24 21 18 14 16 4 5 3 4 3 2 1 2 1 2 1 2 9 7 5 2 2 2 1 2 1 1 1 1 2 3 14 17 17 15 14 14 12 13 13 13 11 10 10 11 13 13 11 10
30 26 24 24 24 23 20 16 13 5 4 4 2 3 1 2 2 4 4 6 6 8 8 6 5 2 2 3 0 1 0 2 3 2 1 8 19 21 18 15 12 13 14 13 12 12 12 13 14 16 14 12 11 9
28 27 26 27 25 21 16 12 9 4 4 4 4 3 2 3 5 7 10 9 4 5 5 4 2 3 1 2 2 3 2 3 2 1 3 15 20 19 16 14 13 13 13 14 14 15 17 17 15 14 13 11 9 8
28 27 26 24 22 19 13 10 5 4 4 3 3 7 7 8 5 5 5 4 3 3 2 1 2 2 1 1 2 2 3 1 1 2 9 17 20 18 15 14 12 13 15 16 18 19 19 17 15 13 12 11 9 8
29 26 24 25 21 17 11 5 4 4 5 5 3 6 11 8 6 4 3 3 1 2 1 1 1 1 3 3 2 2 3 3 4 7 13 17 17 15 13 12 12 14 18 19 19 19 17 15 14 12 11 9 8 5
26 25 24 23 17 8 3 2 4 4 4 4 6 6 6 4 3 3 1 5 3 3 2 1 2 2 3 4 3 2 4 6 7 12 14 15 14 13 13 11 13 18 20 20 20 18 16 14 12 11 9 7 4 2
26 25 24 19 10 3 3 3 3 3 3 3 4 5 3 3 1 2 0 2 4 2 1 2 4 4 3 1 1 0 1 7 10 16 15 16 15 14 12 13 17 20 20 20 19 17 14 11 10 8 6 4 1 2
28 27 21 11 6 5 4 3 3 3 5 3 5 5 3 2 1 1 2 3 2 3 3 7 5 5 4 2 1 1 2 6 9 8 12 18 18 16 15 17 19 21 22 21 19 16 13 12 10 7 5 1 2 4
25 22 15 8 4 3 4 3 3 4 3 4 5 3 2 2 3 3 3 5 5 7 6 4 4 8 6 3 1 3 5 8 9 8 7 11 20 21 21 21 23 23 21 18 16 14 13 10 7 6 3 2 4 5
22 14 6 3 2 3 2 6 2 2 2 3 2 1 1 1 2 4 2 5 6 8 11 13 12 8 7 6 4 4 5 7 8 7 7 11 14 16 19 20 20 21 20 18 15 13 11 8 6 5 3 4 4 5
13 4 2 2 2 2 3 2 3 3 2 2 2 1 2 2 3 1 3 4 5 5 7 10 10 10 9 8 7 5 6 8 8 7 8 12 17 18 18 18 19 17 15 15 15 12 9 7 6 5 4 4 5 5
3 2 1 2 1 2 2 1 2 1 2 3 2 1 2 3 0 2 2 4 3 3 5 7 9 9 9 9 9 7 6 7 6 6 9 12 17 20 20 19 18 19 18 16 13 10 9 8 7 6 5 5 6 6
2 2 3 6 2 3 4 3 3 5 2 2 3 2 2 2 1 4 3 2 1 4 4 6 9 10 8 7 9 9 8 10 8 6 10 14 17 19 22 23 22 20 17 12 11 10 9 8 7 6 6 5 5 5
1 3 3 5 4 3 0 1 3 3 3 4 2 2 2 1 4 4 3 4 3 4 6 7 6 6 6 8 9 10 10 9 8 5 10 15 14 13 10 12 15 13 13 11 9 8 7 7 7 6 5 4 4 5
5 5 4 7 5 6 3 2 3 4 3 5 7 3 5 6 3 2 2 1 4 5 5 7 7 8 8 8 7 9 11 11 10 10 15 18 18 15 13 12 13 12 11 10 9 7 6 6 6 5 3 2 3 5
4 5 7 3 3 4 6 5 4 5 4 9 4 3 3 4 3 3 2 2 3 5 5 6 8 8 10 10 10 11 10 10 14 18 19 19 19 18 16 13 11 11 9 8 8 7 7 6 5 3 1 1 3 5
5 10 5 4 4 5 6 8 4 6 6 9 5 3 3 5 5 5 5 5 5 5 6 7 7 9 9 11 14 15 14 12 11 9 12 15 15 15 16 15 13 11 9 8 7 8 8 6 4 2 0 2 4 6
6 13 4 5 4 5 8 9 9 7 7 7 11 11 9 6 9 12 13 13 12 12 12 12 11 12 13 13 14 15 16 15 13 11 9 8 13 12 14 13 12 11 9 9 9 8 6 5 3 1 2 3 5 7
8 8 6 3 2 3 4 6 4 5 3 5 6 8 5 5 5 6 11 15 19 19 15 14 13 11 12 14 14 15 11 15 13 11 10 9 11 14 14 13 12 12 11 10 9 7 5 3 1 1 2 4 5 6
2 2 2 1 1 1 4 3 2 2 3 3 3 4 7 5 6 6 8 11 13 15 15 14 15 14 13 14 14 14 14 11 14 13 12 10 11 12 14 14 13 13 11 10 8 6 4 2 1 1 2 4 5 6
Wind_Direction
240 242 252 165 166 163 162 164 163 162 163 160 157 158 161 166 171 177 181 174 141 103 81 108 112 128 126 132 140 158 85 14 60 77 133 156 132 113 113 222 15 112 192 177 187 224 288 360 8 41 328 46 50 54
249 212 185 165 163 158 160 157 154 154 157 159 160 159 159 165 174 171 158 149 128 104 114 99 92 94 101 121 131 106 128 135 156 107 128 132 118 126 152 109 31 73 328 125 341 75 47 48 69 40 64 79 74 84
231 202 163 167 164 162 157 150 151 152 158 162 164 162 158 169 173 166 150 133 117 113 92 102 81 84 97 100 105 130 151 133 115 103 128 116 106 172 105 96 144 55 8 115 180 108 79 100 81 76 83 91 99 106
186 165 162 165 160 157 160 150 150 151 150 153 151 148 148 148 156 161 151 142 132 112 96 71 93 80 77 74 87 100 121 116 107 98 94 98 106 348 108 122 131 144 342 93 95 128 119 86 83 97 97 102 105 107
168 151 161 161 164 163 157 148 151 151 150 146 142 135 120 117 133 153 146 133 129 109 128 118 99 88 85 87 88 89 102 105 97 81 62 77 104 127 81 96 123 109 168 190 144 101 96 82 99 101 99 96 98 101
160 152 154 154 151 149 147 147 150 149 148 144 142 135 131 131 138 134 96 91 115 119 109 105 105 120 104 91 91 82 74 62 74 82 93 106 139 107 133 145 161 117 114 144 132 148 121 123 105 96 96 94 100 99
144 149 150 150 149 150 149 147 149 143 141 141 145 141 133 134 137 118 117 127 137 121 105 95 81 130 140 118 75 64 58 62 62 91 78 112 107 128 107 179 168 143 125 117 127 122 114 110 125 105 98 103 100 99
143 142 147 148 146 147 149 150 150 141 135 128 134 137 126 113 93 97 101 119 128 104 92 105 91 127 159 126 97 84 69 71 50 85 108 130 134 146 204 140 149 146 144 147 161 118 163 144 132 116 96 91 101 95
149 147 147 150 150 150 149 156 141 140 134 130 128 120 106 93 68 100 96 93 77 88 108 93 135 177 160 109 111 82 74 61 8 78 192 165 141 221 184 161 168 167 169 157 156 140 141 145 138 126 105 97 92 97
155 152 153 152 151 151 153 153 139 138 136 134 133 101 83 89 112 108 74 73 53 40 59 88 122 116 142 110 74 104 40 104 235 234 132 180 249 145 193 181 172 164 156 158 139 151 157 157 155 144 132 119 102 106
157 157 153 153 149 147 149 145 138 140 137 112 80 72 109 96 63 55 63 44 358 57 47 96 106 125 143 124 137 185 160 178 247 179 184 214 237 165 161 166 170 171 176 180 171 164 172 171 166 158 149 135 121 118
156 151 152 152 150 148 145 137 143 143 115 115 120 102 75 65 55 68 52 74 30 98 132 113 127 104 118 121 109 170 207 180 252 141 185 231 91 144 153 151 153 160 176 185 180 169 166 164 159 153 150 141 135 131
158 151 150 147 147 145 142 143 142 129 126 106 77 76 51 13 57 99 153 136 162 173 156 149 118 106 114 110 84 115 112 148 213 212 227 91 148 154 153 152 150 150 158 170 169 169 161 157 151 147 154 142 135 129
146 147 147 148 147 143 143 136 127 130 86 61 64 79 95 75 230 185 178 153 127 144 142 120 95 96 108 76 83 185 243 267 346 279 251 171 170 167 162 159 158 152 155 154 151 149 151 153 150 148 142 131 124 121
142 143 145 147 146 146 143 136 132 106 70 83 88 92 140 207 177 145 112 98 92 127 130 110 84 96 43 91 146 150 160 245 225 233 233 171 172 169 165 162 163 161 158 155 152 153 150 146 146 141 136 135 134 133
134 133 138 144 147 146 142 142 139 61 67 69 54 90 131 79 57 71 80 79 68 102 95 64 88 59 37 121 155 222 171 227 249 206 145 159 167 168 163 162 158 158 157 156 153 149 143 140 140 140 137 132 123 114
137 134 146 146 146 147 135 115 93 52 64 62 48 71 97 84 87 89 92 80 100 136 102 115 87 194 168 186 224 203 214 227 166 152 157 166 166 165 164 162 162 163 161 156 149 147 147 145 142 137 132 124 116 107
141 145 149 147 143 139 131 51 65 66 68 64 74 77 75 72 87 97 101 140 115 90 90 69 119 192 193 193 237 227 169 172 150 140 149 158 165 167 168 166 161 161 158 153 152 149 147 143 140 139 133 123 112 100
149 151 148 145 140 113 89 59 47 77 74 83 92 91 90 82 65 71 108 177 131 106 92 160 234 223 237 221 237 195 193 183 164 155 157 161 169 172 170 168 165 161 159 155 153 149 144 142 142 140 139 134 120 62
151 153 149 143 139 83 85 68 87 83 110 124 120 128 101 111 138 219 8 126 140 138 244 224 219 219 229 209 179 134 195 181 166 160 166 172 174 180 185 181 169 162 159 156 156 158 156 159 160 154 154 153 117 359
156 148 143 142 80 70 86 89 80 90 118 106 133 137 137 144 174 229 242 222 206 231 237 230 223 203 194 189 243 290 189 181 184 193 194 187 186 185 183 176 174 171 170 168 165 160 162 160 163 166 169 178 342 344
138 143 141 129 68 74 80 102 118 121 109 135 151 171 161 175 173 209 187 191 235 236 222 228 241 223 221 214 242 172 167 178 185 193 195 196 189 186 184 182 178 177 177 174 169 167 166 167 174 184 199 305 328 332
142 139 123 78 88 69 73 138 121 131 104 181 139 91 273 239 175 177 251 236 251 242 234 232 239 236 212 216 214 199 184 188 190 194 198 200 197 195 187 183 182 179 174 171 173 174 175 184 194 205 242 297 316 324
124 105 112 99 79 109 141 152 142 129 116 140 149 293 234 204 172 208 251 256 237 242 228 219 218 206 201 205 202 197 191 187 188 192 193 191 185 183 184 181 177 178 179 179 176 178 189 203 204 221 261 283 309 317
116 104 115 43 112 88 47 74 149 102 214 197 150 278 207 169 82 248 245 265 264 234 225 205 202 209 221 203 191 186 191 193 200 197 182 178 179 170 169 173 175 176 180 182 190 201 206 208 218 239 260 283 305 314
100 181 154 190 189 157 191 154 199 196 163 174 217 124 138 96 247 246 243 264 257 194 205 195 197 198 198 198 198 194 192 185 184 186 178 174 182 184 177 177 178 181 185 190 205 205 209 212 224 240 255 281 297 309
221 271 200 198 184 179 81 154 147 122 163 189 189 142 106 200 248 251 245 244 201 175 162 170 173 189 203 194 186 189 186 187 185 184 175 163 167 173 176 179 182 188 195 197 200 205 207 216 226 236 253 270 292 315
219 200 176 184 192 192 175 184 173 205 210 177 137 173 188 201 237 213 215 193 186 177 179 186 190 184 179 174 183 184 177 173 171 164 164 161 162 172 175 169 175 180 183 185 184 193 207 213 214 219 228 264 310 329
222 203 179 162 164 193 215 193 219 211 197 180 166 196 230 227 246 214 205 193 197 192 189 194 195 191 183 180 177 176 184 184 177 167 172 173 175 179 184 184 182 182 185 190 192 193 188 185 185 187 202 304 331 334
228 184 186 182 172 214 211 203 211 209 205 207 218 232 245 255 258 246 243 243 236 219 205 191 194 201 203 195 184 180 182 184 185 201 196 196 194 197 194 194 193 195 193 193 192 180 170 169 168 169 222 335 338 338
178 181 193 192 222 218 221 216 219 223 230 237 239 243 250 270 276 265 253 250 240 232 223 215 203 197 199 199 196 192 187 186 191 197 200 197 196 192 189 188 188 187 184 176 170 166 161 157 155 144 347 343 344 346
183 187 188 202 246 211 199 199 213 218 238 230 239 230 239 238 249 250 243 236 232 229 226 218 214 213 208 203 209 210 207 208 200 200 197 190 189 186 183 184 183 179 175 170 166 163 160 157 140 20 354 351 350 351
149 151 143 137 141 202 212 197 230 278 254 247 241 227 218 228 247 248 246 239 231 223 218 216 212 210 205 205 205 206 202 192 198 198 190 184 181 181 182 178 175 171 169 167 163 158 153 141 65 21 2 359 0 0
Height
1325 1326 1328 1332 1340 1346 1352 1357 1361 1365 1369 1374 1378 1382 1385 1388 1391 1392 1393 1394 1396 1400 1407 1407 1410 1412 1414 1417 1420 1424 1425 1426 1428 1431 1435 1444 1439 1440 1442 1451 1441 1440 1441 1443 1444 1446 1445 1454 1448 1448 1456 1455 1454 1451
1324 1325 1325 1334 1341 1347 1353 1358 1362 1365 1370 1375 1379 1383 1385 1387 1389 1391 1393 1394 1396 1399 1409 1411 1412 1414 1416 1417 1418 1423 1426 1427 1428 1432 1436 1438 1437 1443 1444 1438 1447 1445 1450 1448 1452 1453 1458 1458 1458 1458 1456 1455 1455 1455
1319 1320 1325 1336 1343 1349 1354 1359 1363 1367 1371 1375 1379 1383 1385 1386 1388 1391 1393 1394 1397 1403 1411 1414 1416 1418 1419 1419 1420 1422 1425 1426 1427 1427 1432 1437 1437 1440 1438 1444 1448 1449 1451 1450 1454 1458 1459 1460 1460 1459 1458 1457 1458 1457
1316 1317 1329 1337 1344 1350 1356 1360 1365 1368 1373 1377 1380 1383 1385 1386 1388 1391 1393 1395 1397 1402 1411 1420 1419 1420 1421 1421 1420 1420 1422 1425 1427 1429 1432 1435 1435 1440 1442 1445 1447 1450 1450 1450 1455 1458 1459 1460 1460 1460 1460 1460 1460 1461
1317 1320 1332 1339 1345 1351 1356 1362 1367 1371 1375 1378 1381 1384 1386 1387 1389 1392 1394 1396 1397 1401 1411 1420 1422 1424 1424 1424 1423 1425 1426 1427 1429 1431 1433 1436 1439 1441 1444 1447 1448 1449 1450 1449 1450 1456 1457 1460 1461 1461 1461 1462 1462 1462
1317 1324 1334 1341 1347 1354 1359 1364 1369 1373 1376 1380 1383 1385 1387 1389 1391 1393 1396 1399 1399 1401 1409 1420 1426 1426 1426 1427 1428 1429 1428 1429 1430 1432 1436 1438 1439 1441 1444 1445 1449 1449 1450 1451 1453 1455 1457 1460 1461 1462 1462 1463 1464 1464
1321 1331 1337 1344 1351 1356 1362 1367 1371 1375 1378 1381 1384 1387 1389 1391 1392 1393 1397 1400 1401 1403 1408 1421 1425 1428 1429 1430 1430 1431 1431 1431 1432 1435 1437 1438 1440 1441 1443 1443 1447 1449 1450 1451 1454 1457 1460 1461 1463 1464 1465 1465 1466 1467
1328 1335 1342 1348 1354 1360 1365 1369 1373 1377 1380 1382 1386 1389 1392 1393 1395 1397 1398 1400 1403 1404 1408 1419 1427 1428 1429 1430 1431 1432 1432 1433 1435 1437 1438 1439 1440 1441 1440 1445 1447 1449 1451 1453 1455 1456 1458 1460 1462 1463 1465 1466 1467 1467
1334 1340 1347 1353 1359 1363 1368 1371 1375 1380 1383 1386 1389 1391 1393 1395 1397 1401 1402 1404 1405 1409 1411 1417 1423 1428 1428 1430 1431 1433 1433 1436 1438 1437 1438 1440 1441 1439 1439 1442 1445 1447 1450 1452 1454 1456 1459 1461 1463 1464 1466 1466 1467 1468
1339 1345 1351 1357 1361 1366 1371 1374 1378 1383 1386 1388 1392 1393 1397 1400 1401 1403 1406 1407 1408 1409 1412 1418 1422 1424 1428 1430 1433 1435 1435 1436 1436 1438 1438 1439 1437 1439 1439 1442 1445 1447 1449 1451 1453 1458 1460 1462 1464 1465 1467 1468 1469 1470
1343 1349 1355 1360 1365 1370 1374 1378 1382 1386 1388 1391 1393 1397 1401 1402 1403 1405 1408 1411 1414 1415 1417 1420 1421 1423 1427 1429 1431 1434 1435 1437 1437 1435 1437 1437 1434 1437 1439 1442 1445 1447 1450 1452 1454 1455 1458 1461 1463 1465 1467 1468 1469 1471
1346 1352 1358 1364 1369 1374 1378 1382 1386 1389 1390 1392 1393 1399 1402 1405 1407 1410 1415 1417 1416 1416 1419 1420 1422 1424 1426 1428 1430 1435 1433 1435 1430 1435 1436 1429 1437 1438 1439 1442 1445 1447 1450 1452 1454 1456 1458 1461 1463 1464 1467 1468 1470 1471
1349 1356 1363 1368 1373 1378 1382 1386 1389 1391 1392 1395 1398 1402 1405 1410 1414 1418 1420 1417 1418 1417 1418 1420 1423 1424 1427 1428 1431 1433 1435 1428 1433 1429 1427 1432 1437 1439 1440 1443 1445 1447 1449 1451 1453 1456 1458 1460 1462 1465 1467 1469 1470 1472
1354 1361 1367 1372 1377 1382 1386 1389 1392 1394 1396 1398 1402 1408 1413 1414 1416 1415 1415 1415 1416 1416 1417 1419 1422 1423 1426 1429 1432 1432 1434 1434 1431 1429 1426 1432 1435 1438 1441 1443 1446 1448 1450 1452 1453 1455 1458 1460 1462 1465 1468 1470 1471 1473
1362 1367 1371 1376 1381 1386 1390 1393 1395 1397 1398 1401 1405 1412 1413 1413 1413 1414 1414 1415 1417 1418 1419 1421 1423 1425 1428 1431 1431 1433 1434 1432 1428 1426 1427 1429 1432 1436 1440 1444 1446 1448 1450 1452 1454 1456 1458 1461 1464 1466 1469 1471 1474 1475
1366 1370 1376 1381 1386 1390 1394 1396 1398 1399 1401 1405 1408 1411 1413 1413 1414 1415 1416 1418 1419 1420 1421 1422 1426 1429 1430 1430 1430 1431 1429 1428 1424 1427 1428 1429 1433 1437 1441 1444 1446 1448 1450 1452 1454 1457 1460 1463 1466 1468 1471 1473 1474 1476
1370 1374 1382 1387 1391 1395 1398 1400 1402 1402 1405 1409 1413 1413 1413 1415 1416 1418 1419 1421 1422 1423 1423 1425 1429 1429 1429 1427 1427 1427 1426 1425 1426 1427 1428 1431 1434 1437 1441 1444 1446 1448 1450 1453 1455 1459 1462 1465 1468 1470 1472 1474 1475 1476
1375 1381 1386 1392 1395 1399 1402 1403 1404 1407 1411 1414 1415 1416 1416 1417 1419 1420 1421 1422 1424 1424 1424 1425 1426 1427 1428 1429 1426 1423 1424 1425 1426 1426 1429 1432 1436 1439 1442 1444 1446 1448 1451 1454 1457 1461 1464 1466 1469 1471 1473 1475 1476 1477
1380 1386 1391 1396 1400 1402 1405 1407 1408 1412 1415 1416 1417 1418 1419 1420 1421 1422 1422 1423 1424 1425 1426 1426 1426 1424 1423 1422 1421 1421 1422 1423 1425 1427 1430 1433 1436 1439 1441 1443 1446 1448 1452 1455 1459 1462 1465 1467 1470 1472 1473 1474 1475 1476
1386 1391 1396 1400 1403 1404 1406 1410 1410 1413 1415 1418 1418 1420 1421 1422 1423 1423 1423 1423 1424 1425 1426 1425 1422 1420 1420 1420 1420 1421 1421 1422 1424 1427 1430 1433 1435 1438 1441 1443 1446 1449 1453 1456 1460 1462 1465 1467 1469 1471 1472 1473 1474 1474
1390 1395 1400 1403 1404 1406 1409 1411 1413 1415 1416 1418 1419 1420 1421 1422 1422 1423 1423 1424 1425 1423 1421 1418 1418 1419 1419 1420 1420 1420 1420 1422 1423 1426 1427 1430 1433 1437 1439 1443 1446 1449 1452 1455 1458 1461 1464 1466 1468 1470 1471 1472 1472 1471
1395 1399 1403 1405 1407 1408 1411 1412 1414 1415 1417 1418 1419 1420 1420 1421 1421 1422 1422 1423 1420 1416 1416 1416 1417 1417 1418 1419 1419 1420 1421 1422 1423 1425 1426 1428 1429 1433 1436 1440 1443 1447 1451 1454 1458 1460 1463 1465 1467 1468 1469 1470 1469 1469
1399 1403 1405 1407 1409 1410 1414 1414 1415 1416 1418 1419 1419 1420 1420 1419 1420 1421 1421 1418 1413 1411 1412 1413 1415 1416 1417 1418 1418 1419 1420 1422 1423 1425 1426 1427 1430 1433 1436 1439 1443 1447 1450 1454 1457 1460 1462 1464 1465 1467 1467 1467 1467 1467
1403 1406 1407 1408 1410 1412 1414 1414 1415 1416 1417 1418 1419 1420 1419 1418 1419 1420 1417 1412 1409 1409 1409 1411 1412 1414 1415 1416 1418 1418 1419 1420 1422 1423 1424 1426 1428 1432 1436 1440 1443 1447 1451 1454 1456 1458 1461 1462 1464 1465 1465 1465 1465 1465
1406 1409 1410 1410 1411 1413 1414 1414 1414 1415 1419 1418 1419 1419 1418 1418 1421 1420 1416 1409 1407 1408 1408 1410 1411 1413 1414 1415 1417 1418 1419 1420 1421 1422 1423 1425 1428 1431 1436 1439 1443 1446 1449 1452 1454 1457 1458 1460 1461 1462 1463 1463 1463 1462
1408 1407 1409 1408 1411 1413 1413 1417 1417 1416 1416 1417 1417 1416 1417 1419 1419 1415 1410 1407 1406 1407 1408 1408 1410 1411 1413 1414 1415 1417 1418 1420 1421 1422 1423 1425 1428 1431 1433 1437 1440 1445 1448 1451 1453 1455 1456 1458 1459 1460 1460 1460 1460 1460
1408 1407 1406 1407 1408 1409 1410 1410 1410 1411 1414 1416 1414 1417 1418 1423 1418 1409 1406 1405 1406 1406 1407 1408 1409 1411 1412 1413 1414 1416 1418 1419 1421 1423 1424 1426 1430 1434 1437 1439 1441 1445 1447 1449 1451 1453 1454 1455 1456 1457 1458 1458 1458 1458
1403 1404 1405 1405 1406 1407 1408 1408 1409 1409 1409 1408 1411 1414 1416 1414 1408 1405 1405 1405 1405 1406 1407 1408 1408 1409 1411 1412 1414 1415 1417 1419 1421 1422 1425 1428 1431 1434 1437 1439 1442 1444 1446 1448 1449 1451 1452 1453 1454 1455 1455 1456 1456 1455
1401 1400 1402 1403 1404 1404 1404 1404 1404 1403 1404 1405 1407 1407 1406 1404 1404 1403 1404 1404 1404 1405 1405 1406 1407 1409 1410 1411 1413 1415 1417 1419 1420 1422 1425 1428 1430 1434 1436 1439 1441 1443 1445 1446 1447 1449 1450 1451 1452 1453 1454 1454 1454 1453
1397 1398 1399 1400 1401 1401 1398 1399 1400 1400 1402 1403 1403 1403 1403 1402 1402 1402 1402 1403 1403 1404 1404 1405 1406 1408 1409 1410 1412 1415 1417 1419 1422 1424 1425 1427 1430 1432 1434 1437 1439 1441 1443 1444 1446 1447 1448 1450 1451 1452 1452 1452 1452 1451
1392 1394 1396 1396 1396 1396 1396 1397 1398 1399 1399 1400 1400 1401 1400 1400 1399 1399 1399 1399 1400 1401 1402 1403 1404 1405 1407 1409 1411 1414 1416 1419 1421 1423 1425 1426 1428 1431 1433 1436 1438 1440 1442 1443 1445 1446 1447 1448 1449 1450 1450 1450 1449 1449
1391 1392 1393 1395 1394 1394 1395 1396 1396 1397 1396 1396 1396 1396 1397 1397 1396 1394 1391 1392 1393 1395 1398 1400 1402 1404 1406 1408 1410 1413 1414 1417 1420 1422 1424 1426 1428 1430 1432 1435 1437 1439 1441 1443 1444 1446 1447 1448 1448 1448 1448 1448 1447 1447
1390 1391 1392 1393 1394 1394 1395 1396 1395 1395 1395 1394 1393 1393 1393 1394 1392 1390 1387 1387 1389 1391 1394 1397 1398 1400 1403 1405 1408 1410 1413 1415 1418 1420 1423 1425 1427 1429 1432 1434 1437 1439 1441 1443 1444 1445 1446 1447 1447 1447 1447 1446 1446 1445